{"data":{"norad_id":68583,"intl_designator":"2026-072L","name":"KUIPER-00244","alt_names":[],"object_type":"PAYLOAD","status":"ACTIVE","operator":null,"country":"US","launch_date":"2026-04-04","launch_site_code":"AFETR","launch_vehicle":null,"mission":null,"orbit_class":"UNKNOWN","rcs_meters":null,"size_class":null,"mass_kg":null,"dimensions":null,"purposes":[],"wikipedia_slug":null,"has_3d_model":false,"image_url":null,"decayed_at":null,"tle_current":{"epoch":"2026-05-25T04:00:03.998880Z","epoch_age_seconds":57320,"freshness":"FRESH","line1":"1 68583U 26072L   26145.16671295  .00023935  00000+0  70833-3 0  9997","line2":"2 68583  51.8776 288.0016 0003501 289.0858  26.1217 15.34764360  5733","mean_motion":15.3476436,"eccentricity":0.0003501,"inclination_deg":51.8776,"raan_deg":288.0016,"arg_perigee_deg":289.0858,"mean_anomaly_deg":26.1217,"bstar":0.00070833,"rev_number":573,"period_min":93.825478199142,"perigee_km":459.22590065532,"apogee_km":464.01509885665,"semimajor_km":6839.757499756,"source":"CELESTRAK","updated_at":"2026-05-25T13:38:07.949971Z"}}}